Estación meteorológica de Mataró (Maresme, Maresme)

Consulta los datos en tiempo real de la estación meteorológica de Mataró





Hora UTC 04:55
Temperatura 22.4 ºC
Suelo 15 cm 20.5 ºC
Humedad 61.2 %
Presión 1017.0 hPa
Pluja 0.0 mm
Velocidad viento 3.3 km/h
Dirección viento N
Radiación solar 0.3 W/m²

Webcam

Datos diarios 2026-08-31



Hora UTC (invierno +1h; verano +2h)
Temperatura (ºC) Humedad (%) Presión (hPa) Velocidad viento (km/h) Precipitación (mm) Radiación solar (W/m²)
Hora UTC Aire Suelo 15 cm Humedad Presión Vel. Dir. Vel. Max Dir. Intent. máx 5 min. Rad. Sol.
00:05 23.9 22.6 58.8 1016.4 4.9 NNW 4.9 NNW 0.0 0.1
00:10 23.8 22.3 59.9 1016.4 3.9 NW 6.7 NNW 0.0 0.1
00:15 23.7 22.0 60.7 1016.4 3.2 NW 4.6 N 0.0 0.1
00:20 23.5 21.6 61.6 1016.5 6.0 NW 9.9 NW 0.0 0.1
00:25 23.3 21.4 63.5 1016.5 9.3 NNW 11.6 NW 0.0 0.1
00:30 23.4 21.5 63.8 1016.5 10.3 NW 13.8 NNW 0.0 0.1
00:35 23.5 21.7 63.9 1016.5 8.5 NW 12.4 NNW 0.0 0.1
00:40 23.5 21.8 64.1 1016.5 4.0 WNW 7.4 N 0.0 0.1
00:45 23.4 21.7 64.1 1016.6 4.4 NNW 6.4 NNW 0.0 0.1
00:50 23.1 21.6 62.7 1016.7 4.0 NW 6.0 NW 0.0 0.1
00:55 23.0 21.3 63.1 1016.6 0.7 NNW 2.5 NNW 0.0 0.1
01:00 22.8 21.0 61.3 1016.6 2.0 NNW 3.5 NNW 0.0 0.1
01:05 23.0 20.9 58.9 1016.5 0.9 NW 3.2 NW 0.0 0.1
01:10 23.0 20.8 58.4 1016.6 2.9 NNW 3.9 N 0.0 0.1
01:15 23.0 20.7 57.7 1016.6 2.9 NNW 3.9 N 0.0 0.1
01:20 23.1 20.7 58.1 1016.6 0.7 NW 2.8 WNW 0.0 0.1
01:25 23.2 20.6 58.3 1016.6 0.1 NW 1.8 NW 0.0 0.1
01:30 23.1 20.3 58.7 1016.6 1.8 NW 3.2 WNW 0.0 0.1
01:35 22.8 20.0 59.2 1016.6 3.0 NW 4.9 NNW 0.0 0.1
01:40 22.8 20.0 59.0 1016.7 3.3 NW 5.6 N 0.0 0.1
01:45 22.8 20.2 59.1 1016.7 2.6 NW 4.6 NW 0.0 0.1
01:50 22.9 20.3 59.0 1016.7 3.8 NNW 7.4 NW 0.0 0.1
01:55 23.0 20.5 59.1 1016.7 3.2 NNW 6.0 NNW 0.0 0.1
02:00 23.1 20.8 58.8 1016.7 3.6 N 7.4 N 0.0 0.1
02:05 22.9 20.9 59.6 1016.7 2.4 NNW 4.6 NNW 0.0 0.1
02:10 22.4 20.7 61.2 1016.7 0.2 NNW 2.1 NNW 0.0 0.1
02:15 22.4 20.5 61.5 1016.7 0.6 NE 2.1 NE 0.0 0.1
02:20 22.3 20.1 61.5 1016.7 0.6 NNW 4.2 N 0.0 0.1
02:25 22.1 19.9 61.1 1016.7 4.1 NNW 5.6 NNW 0.0 0.1
02:30 22.2 20.1 60.7 1016.7 4.4 NNW 5.6 NNW 0.0 0.1
02:35 22.2 20.2 60.3 1016.8 5.9 N 7.4 N 0.0 0.1
02:40 22.4 20.3 58.7 1016.8 5.9 N 7.4 N 0.0 0.1
02:45 22.4 20.5 58.0 1016.8 6.3 N 8.1 NNW 0.0 0.1
02:50 22.2 20.6 59.2 1016.7 8.5 NNW 11.3 NNW 0.0 0.1
02:55 22.2 20.6 62.1 1016.7 9.2 NNW 13.1 NNW 0.0 0.1
03:00 22.4 20.7 64.3 1016.8 8.8 NNW 11.6 NW 0.0 0.1
03:05 22.5 20.8 63.9 1016.7 7.8 NW 11.3 NNW 0.0 0.1
03:10 22.5 20.9 65.8 1016.7 7.5 NW 12.7 NW 0.0 0.1
03:15 22.7 21.0 68.3 1016.7 8.4 NW 12.0 WNW 0.0 0.1
03:20 22.8 21.1 67.6 1016.7 7.8 NNW 13.8 NNW 0.0 0.1
03:25 22.9 21.3 65.3 1016.7 8.9 NNW 14.1 NW 0.0 0.1
03:30 23.0 21.5 64.0 1016.7 5.0 NW 8.5 NW 0.0 0.1
03:35 22.9 21.4 62.9 1016.7 4.8 NW 8.5 NNW 0.0 0.1
03:40 22.7 21.3 63.2 1016.7 4.9 WNW 9.2 WNW 0.0 0.1
03:45 22.5 21.0 63.4 1016.7 3.3 NW 7.1 NNW 0.0 0.1
03:50 22.4 20.6 62.4 1016.8 2.7 NNW 6.4 WNW 0.0 0.1
03:55 22.4 20.3 62.6 1016.8 1.9 NE 7.8 NE 0.0 0.1
04:00 22.3 20.2 62.9 1016.8 2.0 NE 6.7 NNW 0.0 0.1
04:05 22.1 20.1 62.7 1016.7 0.5 ESE 2.5 ESE 0.0 0.1
04:10 22.1 20.0 62.4 1016.7 0.5 SW 2.5 WNW 0.0 0.1
04:15 21.9 19.7 62.5 1016.7 0.1 SSE 2.1 SE 0.0 0.1
04:20 21.8 19.5 63.2 1016.8 0.7 SE 2.5 SE 0.0 0.1
04:25 21.6 19.3 64.3 1016.8 0.4 N 1.8 SSW 0.0 0.1
04:30 21.5 19.2 64.5 1016.9 0.3 NW 2.5 NW 0.0 0.1
04:35 21.3 19.0 64.8 1016.9 2.5 NW 4.9 NW 0.0 0.1
04:40 21.3 18.9 64.4 1016.9 4.6 NNW 8.5 N 0.0 0.1
04:45 21.8 19.2 63.4 1016.9 8.3 N 13.8 N 0.0 0.1
04:50 22.4 19.9 62.1 1017.0 7.1 N 10.6 N 0.0 0.2
04:55 22.4 20.5 61.2 1017.0 3.3 N 6.7 NNW 0.0 0.3
Máxima 23.9 22.6 68.3 1017.0 10.3 NW 14.1 NW 0.0 0.3
Mínima 20 18.9 57.7 1016.4
Total 0.0